Lee's Summit, MO

5:28 AM CST on November 22, 2017 (GMT -0600)
Lee's Summit Municipal

Weather History for KLXT - July, 2013

Change the Weather History Date:

Thursday, July 18, 2013

  Actual Average (KMKC) Record (KMKC)
Temperature  
Mean Temperature 83 °F -  
Max Temperature 95 °F 88 °F 106 °F (2012)
Min Temperature 73 °F 70 °F 64 °F (2004)
Cooling Degree Days 18    
Growing Degree Days 33 (Base 50)    
Moisture  
Dew Point 66 °F    
Average Humidity 56    
Maximum Humidity 82    
Minimum Humidity 35    
Precipitation  
Precipitation 0.00 in - - ()
Sea Level Pressure  
Sea Level Pressure 30.10 in    
Wind  
Wind Speed 5 mph (SSW)    
Max Wind Speed 12 mph    
Max Gust Speed 16 mph    
Visibility 10 miles    
Events      
Averages and records for this station are not official NWS values.
T = Trace of Precipitation, MM = Missing Value Source: NWS Daily Summary

Daily Weather History Graph

Daily Weather History Graph

Search for Another Location

Airport or City:

Trip Planner

Search our weather history database for the weather conditions in past years. The results will help you decide how hot, cold, wet, or windy it might be!

Date:

Astronomy

Jul. 18, 2013 Rise Set
Actual Time 6:06 AM CDT 8:40 PM CDT
Civil Twilight 5:35 AM CDT 9:11 PM CDT
Nautical Twilight 4:57 AM CDT 9:49 PM CDT
Astronomical Twilight 4:14 AM CDT 10:32 PM CDT
Moon 4:38 PM CDT (7/18) 1:57 AM CDT (7/18)
Length of Visible Light 15h 35m
Length of Day
14h 33m
Waxing Gibbous, 77% of the Moon is Illuminated
Jul 18
Waxing Gibbous
Jul 22
Full
Jul 29
Last Quarter
Aug 6
New
Aug 14
First Quarter

Hourly Weather History & Observations

Time (CDT) Temp. Heat Index Dew Point Humidity Pressure Visibility Wind Dir Wind Speed Gust Speed Precip Events Conditions
12:53 AM 78.1 °F - 70.0 °F 76% 30.20 in 10.0 mi ESE 5.8 mph - N/A   Clear
1:53 AM 78.1 °F - 69.1 °F 74% 30.20 in 10.0 mi SE 5.8 mph - N/A   Clear
2:53 AM 77.0 °F - 69.1 °F 76% 30.19 in 10.0 mi Calm Calm - N/A   Clear
3:53 AM 75.9 °F - 68.0 °F 76% 30.18 in 10.0 mi Calm Calm - N/A   Clear
4:53 AM 73.9 °F - 68.0 °F 82% 30.17 in 10.0 mi South 3.5 mph - N/A   Clear
5:53 AM 73.9 °F - 68.0 °F 82% 30.17 in 10.0 mi Calm Calm - N/A   Clear
6:53 AM 73.9 °F - 68.0 °F 82% 30.18 in 10.0 mi Calm Calm - N/A   Clear
7:53 AM 78.1 °F - 69.1 °F 74% 30.18 in 10.0 mi SW 3.5 mph - N/A   Clear
8:53 AM 82.0 °F 84.9 °F 68.0 °F 62% 30.18 in 10.0 mi WSW 5.8 mph - N/A   Clear
9:53 AM 84.9 °F 89.4 °F 70.0 °F 61% 30.16 in 10.0 mi WSW 5.8 mph - N/A   Clear
10:53 AM 88.0 °F 90.7 °F 66.9 °F 49% 30.15 in 10.0 mi Variable 5.8 mph - N/A   Clear
11:53 AM 88.0 °F 90.3 °F 66.0 °F 48% 30.14 in 10.0 mi SW 6.9 mph - N/A   Partly Cloudy
12:53 PM 91.9 °F 93.3 °F 64.0 °F 39% 30.13 in 10.0 mi West 4.6 mph - N/A   Partly Cloudy
1:53 PM 93.0 °F 94.6 °F 64.0 °F 38% 30.10 in 10.0 mi Variable 6.9 mph - N/A   Partly Cloudy
2:53 PM 91.9 °F 93.3 °F 64.0 °F 39% 30.07 in 10.0 mi SW 6.9 mph - N/A   Partly Cloudy
3:53 PM 91.9 °F 94.1 °F 64.9 °F 41% 30.04 in 10.0 mi South 8.1 mph - N/A   Scattered Clouds
4:53 PM 93.9 °F 94.8 °F 62.1 °F 35% 30.02 in 10.0 mi SSW 11.5 mph 16.1 mph N/A   Clear
5:53 PM 93.9 °F 95.2 °F 63.0 °F 36% 30.01 in 10.0 mi SSW 5.8 mph - N/A   Clear
6:53 PM 93.0 °F 94.2 °F 63.0 °F 37% 29.99 in 10.0 mi South 6.9 mph - N/A   Clear
7:53 PM 90.0 °F 91.3 °F 64.0 °F 42% 29.99 in 10.0 mi SSW 4.6 mph - N/A   Clear
8:53 PM 88.0 °F 89.3 °F 64.0 °F 45% 29.99 in 10.0 mi South 4.6 mph - N/A   Clear
9:53 PM 86.0 °F 87.6 °F 64.9 °F 49% 30.01 in 10.0 mi SSW 6.9 mph - N/A   Clear
10:53 PM 82.9 °F 84.6 °F 64.9 °F 54% 30.00 in 10.0 mi SSW 5.8 mph - N/A   Clear
11:53 PM 81.0 °F 82.7 °F 64.9 °F 58% 29.99 in 10.0 mi SW 6.9 mph - N/A   Clear